Weather Service Report


344 
ASUS46 KSTO 270609
RWRCA 

NORTHERN AND CENTRAL CA REGIONAL WEATHER ROUNDUP
NATIONAL WEATHER SERVICE SACRAMENTO CA 
1100 PM PDT SUN APR 26 2015

NOTE: FAIR INDICATES FEW OR NO CLOUDS BELOW 12,000 FEET WITH NO
SIGNIFICANT WEATHER AND/OR OBSTRUCTIONS TO VISIBILITY.

CAZ001-003-270700-
NORTHWEST AREA
  
CITY           SKY/WX    TMP DP  RH WIND       PRES   REMARKS
CRESCENT CITY  PTCLDY    51  49  92 N9        30.22F                  
ARCATA         NOT AVBL                                               
SHELTER COVE   NOT AVBL                                               
UKIAH          CLEAR     55  47  74 NW5       30.13F                  
$$

CAZ006-505>513-270700-
BAY AREA
  
CITY           SKY/WX    TMP DP  RH WIND       PRES   REMARKS
SANTA ROSA     CLEAR     61  48  62 NW6       30.07S                  
SAN RAFAEL     N/A       57  MM  MM MISG
NAPA           CLEAR     53  50  89 SE5       30.07S                  
CONCORD        CLEAR     61  48  62 S5        30.07S                  
OAKLAND CITY   N/A       62  MM  MM MISG
OAKLAND        PTCLDY    57  51  80 W5        30.09S                  
SAN FRAN CITY  N/A       56  MM  74 MISG
SAN FRAN ARPT  CLEAR     55  49  80 W13       30.08F                  
LIVERMORE      CLEAR     60  50  69 NW3       30.07F                  
HAYWARD        CLEAR     57  51  80 CALM      30.08F                  
REDWOOD CITY   N/A       MM  MM  MM MISG
MOFFETT ARPT   CLEAR     59  49  69 NW3       30.09F                  
SAN JOSE ARPT  CLEAR     58  51  78 NW6       30.08F                  
$$
CAZ034-037-514>518-270700-
CENTRAL COAST
  
CITY           SKY/WX    TMP DP  RH WIND       PRES   REMARKS
WATSONVILLE    CLEAR     56  49  77 CALM      30.09S                  
SALINAS        CLEAR     57  48  72 NW5       30.08F                  
MONTEREY       CLEAR     54  48  80 S7        30.10F                  
PT PIEDRAS BLS NOT AVBL                                               
SAN LUIS OBISP CLEAR     51  47  86 S3        30.04S                  
SANTA MARIA    CLEAR     52  48  86 CALM      30.04F                  
$$
CAZ015-016-270700-
NORTHERN SACRAMENTO VALLEY
  
CITY           SKY/WX    TMP DP  RH WIND       PRES   REMARKS
REDDING        CLEAR     71  43  36 N7        30.09S                  
RED BLUFF      CLEAR     69  44  40 N10       30.08S                  
OROVILLE       CLEAR     63  50  62 CALM      30.05S                  
$$
CAZ016>018-270700-
SOUTHERN SACRAMENTO VALLEY
  
CITY           SKY/WX    TMP DP  RH WIND       PRES   REMARKS
AUBURN         CLEAR     54  46  76 CALM      30.07F                  
BEALE AFB      CLEAR     60  51  74 S2        30.03R                  
LINCOLN        FAIR      54  46  76 E6        30.03S                  
MARYSVILLE     CLEAR     59  50  72 E3        30.04S                  
SAC INTL ARPT  CLEAR     61  50  67 NW7       30.02F                  
MATHER AIRPORT NOT AVBL                                               
DOWNTOWN SAC   N/A       65  MM  MM MISG
SAC EXEC ARPT  CLEAR     61  51  70 SW3       30.03S                  
VACAVILLE      CLEAR     58  49  72 CALM      30.05S                  
TRAVIS AFB     CLEAR     56  51  85 S2        30.02F                  
$$
CAZ019>021-270700-
SAN JOAQUIN VALLEY
  
CITY           SKY/WX    TMP DP  RH WIND       PRES   REMARKS
STOCKTON       CLEAR     62  49  62 W9        30.02F                  
MODESTO        CLEAR     67  46  47 NW13      30.00F                  
MERCED         CLEAR     61  47  59 W8        29.99F                  
LEMOORE        CLEAR     59  36  42 W7        30.03S                  
FRESNO         CLEAR     65  48  54 E3        30.03R                  
HANFORD        CLEAR     61  48  62 S7        30.03S                  
PORTERVILLE    CLOUDY    63  48  59 CALM      30.05R                  
BAKERSFIELD    PTCLDY    64  44  48 CALM      30.05R                  
$$
CAZ011-012-071-270700-
NORTHERN MOUNTAINS
  
CITY           SKY/WX    TMP DP  RH WIND       PRES   REMARKS
YREKA          CLEAR     50  41  71 MISG      30.26F                  
MOUNT SHASTA   CLEAR     50  40  68 N6        30.25R                  
ALTURAS        CLEAR     51  36  56 N10       30.24R                  
$$
CAZ011-012-071-270700-
SIERRA NEVADA MTNS
  
CITY           SKY/WX    TMP DP  RH WIND       PRES   REMARKS
BLUE CANYON    CLEAR     51  26  37 N5        30.20F                  
TRUCKEE        CLEAR     36  30  80 S3        30.26R                  
TAHOE VLY ARPT CLEAR     38  29  70 CALM      30.24R                  
MAMMOTH LAKES  FAIR      41  21  45 W5        30.31S                  
$$
  

Return to Home page


Western Regional Climate Center, wrcc@dri.edu